Regional Weather Roundup
Issued by NWS Jackson, KY

Home | Current Version | Previous Version | Graphics & Text | Print | Product List | Glossary On
Versions: 1 2 3 4 5 6 7 8 9 10 11 12 13 14 15 16 17 18 19 20 21 22 23 24 25 26 27 28 29 30 31 32 33 34 35 36 37 38 39 40 41 42 43 44 45 46 47 48 49 50
000
ASUS43 KJKL 301010
RWRJKL

EAST KENTUCKY HOURLY WEATHER ROUNDUP
NATIONAL WEATHER SERVICE JACKSON KY
600 AM EDT TUE JUN 30 2015

NOTE: "FAIR" INDICATES FEW OR NO CLOUDS BELOW 12,000 FEET WITH
NO SIGNIFICANT WEATHER AND/OR OBSTRUCTIONS TO VISIBILITY.

* THESE REPORTS ARE NOT UNDER NWS QUALITY CONTROL AND MAY NOT
  REPORT WEATHER SUCH AS PRECIPITATION AND FOG.

KYZ079-080-083-085-087-088-110-112-115-119-120-301100
...EASTERN KENTUCKY...

CITY           SKY/WX    TMP DP  RH WIND       PRES   REMARKS
JACKSON        CLOUDY    66  63  90 VRB3      29.93R
LONDON         MOCLDY    67  61  81 S5        29.93R
SOMERSET*      CLEAR     63  63 100 CALM      29.94R
MONTICELLO*    PTCLDY    65  65 100 CALM      29.95R
MIDDLESBORO*   CLOUDY    66  64  93 CALM      29.96R
HARLAN APT*      N/A     64  64 100 CALM      29.96R VSB 1
HAZARD APT*    CLOUDY    68  66  94 S7        29.94R
BLACK MTN*       N/A     59  59 100 S5          N/A
PIKEVILLE APT* MOCLDY    68  64  88 CALM      29.94R
BIG SANDY*     CLOUDY    68  65  88 SW3       29.91S
MOREHEAD APT*  PTSUNNY   66  64  94 SW9       29.90S
$$

KYZ035-036-041-042-044-050-067-078-099-301100
...CENTRAL KENTUCKY...

CITY           SKY/WX    TMP DP  RH WIND       PRES   REMARKS
MT STERLING*   CLEAR     64  64 100 W3        29.91R FOG
FLEMING/MASON* CLEAR     64  63  94 SW6       29.89R
DANVILLE*      CLOUDY    64  64 100 SW6       29.92R
RICHMOND*      CLEAR     64  63  94 S5        29.90R
LEXINGTON      PTCLDY    65  64  97 SW8       29.90R FOG
FRANKFORT      PTCLDY    65  63  93 SW6       29.88R
$$

KYZ091>093-OHZ055-061-077-WVZ005-015-034-035-042-301100
...SOUTHERN OHIO/WEST VIRGINIA...

CITY           SKY/WX    TMP DP  RH WIND       PRES   REMARKS
COVINGTON      PTCLDY    65  63  93 S8        29.85R
COLUMBUS       CLOUDY    63  63 100 CALM      29.83R FOG
DAYTON         FOG       65  64  97 S5        29.83R VSB 1/4
WILMINGTON     CLOUDY    64  62  93 SW5       29.84R FOG
HUNTINGTON     CLOUDY    66  65  96 SW6       29.87F
CHARLESTON     MOCLDY    69  65  86 SW6       29.89S
PINEVILLE*     CLOUDY    66  65  97 MISG      29.98F
BECKLEY        CLOUDY    66  60  81 SW7       29.96F
BLUEFIELD      MOCLDY    66  60  81 W10       30.00S
$$

VAZ002-007-008-TNZ017-027-036-066-071-301100
...SOUTHWEST VIRGINIA/EAST TENNESSEE...

CITY           SKY/WX    TMP DP  RH WIND       PRES   REMARKS
WISE*          CLOUDY    64  63  94 SW8       30.01R
JONESVILLE*      N/A    N/A N/A N/A MISG        N/A
ABINGDON*      CLOUDY    67  64  88 CALM      30.00R
BRISTOL        CLOUDY    67  63  87 SE3       29.97R
KNOXVILLE      TSTM      66  64  93 SW9       29.98R VSB 1
OAK RIDGE      LGT RAIN  65  63  93 VRB3      29.98R
CROSSVILLE     CLOUDY    65  62  90 S6        29.99S
NASHVILLE      MOCLDY    69  69 100 S3        29.93R
$$

...KEY TO REMARKS...
VSB - VISIBILITY IN MILES
WCI - WIND CHILL INDEX
HX  - HEAT INDEX

$$


USA.gov is the U.S. government's official web portal to all federal, state and local government web resources and services.